User: anonymous   Login
Location: Unspecified
(0.0000°N, 0.0000°E)
Time: 12:37:42
(UTC+00:00)
Language:

Himawari 2 - Orbit

View from above orbital plane
View from above orbital plane
View from above satellite
View from above satellite

Ground track
Ground track

The orbit data is extracted from the following two-line orbital elements,

1 12677U 81076A   18171.76959025 -.00000299 +00000-0 +00000-0 0  9997
2 12677 013.6283 331.6583 0009481 258.0215 278.6717 00.99555573103170
Epoch (UTC): 20 June 2018 18:28:12
Eccentricity: 0.0009481
inclination: 13.6283°
perigee height: 35948 km
apogee height: 36028 km
right ascension of ascending node: 331.6583°
argument of perigee: 258.0215°
revolutions per day: 0.99555573
mean anomaly at epoch: 278.6717°
orbit number at epoch: 10317

The dashed part of the orbit path shows where the satellite is in the earth's shadow,  

DLR